This demonstration page uses our WeatherBlox Daily Observations layout. Learn more.

40.92945, -100.16068

Hourly Observations for December 21, 2017

Temp ( °F °C ) Dew Point ( °F °C ) Humidity (%) Winds ( mph kmh ) Pressure ( in mb ) Visibility ( mi km ) Precip ( " mm )
12:15 am 00:15 Cloudy with Mist and Fog 41 5 39 4 93 93 SSE 6 9 29.74 1007 1 1.609344 0 0
12:35 am 00:35 Cloudy with Fog 41 5 39 4.1 94 94 Calm 29.74 1007 0.5 0.804672 0 0
12:55 am 00:55 Cloudy with Fog 41 5.1 40 4.2 94 94 SSE 5 7 29.74 1007 0.5 0.804672 0 0
1:15 am 01:15 Cloudy with Mist and Fog 42 5.5 40 4.6 94 94 SSE 5 7 29.74 1007 0.75 1.207008 0 0
1:35 am 01:35 Cloudy with Mist and Fog 42 5.5 40 4.6 94 94 Calm 29.74 1007 0.75 1.207008 0 0
1:55 am 01:55 Cloudy with Mist and Fog 42 5.5 40 4.7 95 95 Calm 29.77 1008 1.25 2.01168 0 0
2:15 am 02:15 Cloudy with Mist and Fog 41 5 40 4.2 95 95 Calm 29.77 1008 0.75 1.207008 0 0
2:35 am 02:35 Cloudy with Mist and Fog 41 5 39 4.1 94 94 NNW 6 9 29.77 1008 0.75 1.207008 0 0
2:55 am 02:55 Cloudy with Drizzle 41 4.8 39 4 95 95 N 8 13 29.77 1008 1 1.609344 0 0
3:15 am 03:15 Cloudy with Drizzle 40 4.2 38 3.4 95 95 N 10 17 29.83 1010 1.5 2.414016 0 0
3:35 am 03:35 Cloudy with Drizzle 39 4.1 38 3.3 95 95 N 10 17 29.83 1010 1.5 2.414016 0 0
3:55 am 03:55 Cloudy with Drizzle 39 4 38 3.3 95 95 NNE 10 17 29.8 1009 1.25 2.01168 0 0
4:15 am 04:15 Cloudy with Mist and Fog 39 4 38 3.3 95 95 NE 10 17 29.8 1009 2 3.218688 0 0
4:35 am 04:35 Cloudy with Mist and Fog 37 2.7 35 1.9 95 95 N 20 31 29.8 1009 3 4.828032 0 0
4:55 am 04:55 Cloudy 35 1.5 32 0 90 90 N 17 28 29.8 1009 10 16.09344 0 0
5:15 am 05:15 Cloudy 34 1 31 -0.6 89 89 N 17 28 29.83 1010 10 16.09344 0 0
5:35 am 05:35 Cloudy 33 0.3 30 -1.3 89 89 N 20 31 29.85 1011 7 11.265408 0 0
5:55 am 05:55 Cloudy 32 -0.2 28 -2 88 88 NNE 24 39 29.85 1011 7 11.265408 0 0
6:15 am 06:15 Cloudy 30 -0.9 27 -3 86 86 NNE 23 37 29.85 1011 10 16.09344 0 0
6:35 am 06:35 Cloudy 29 -1.4 25 -3.7 85 85 N 20 31 29.91 1013 10 16.09344 0 0
6:55 am 06:55 Cloudy 28 -2 24 -4.5 83 83 N 18 30 29.91 1013 7 11.265408 0 0
7:15 am 07:15 Cloudy 28 -2.5 23 -5.1 83 83 N 25 41 29.94 1014 7 11.265408 0 0
7:35 am 07:35 Cloudy 26 -3.1 22 -5.4 84 84 N 23 37 29.94 1014 7 11.265408 0 0
7:55 am 07:55 Cloudy with Mist and Fog 26 -3.6 22 -5.5 87 87 N 21 33 29.97 1015 5 8.04672 0 0
8:15 am 08:15 Cloudy 25 -3.9 22 -5.6 88 88 N 29 46 30 1016 7 11.265408 0 0
8:35 am 08:35 Cloudy 25 -4 21 -6 86 86 N 21 33 30.03 1017 7 11.265408 0 0
8:55 am 08:55 Cloudy 25 -4.1 21 -6.1 86 86 NNW 15 24 30.06 1018 7 11.265408 0 0
9:15 am 09:15 Cloudy with Mist and Fog 24 -4.5 20 -6.4 87 87 NNW 10 17 30.09 1019 5 8.04672 0 0
9:35 am 09:35 Cloudy 24 -4.5 20 -6.5 86 86 N 21 33 30.06 1018 7 11.265408 0 0
9:55 am 09:55 Cloudy 24 -4.5 20 -6.5 86 86 N 15 24 30.09 1019 7 11.265408 0 0
10:15 am 10:15 Cloudy 24 -4.5 20 -6.5 86 86 N 15 24 30.09 1019 7 11.265408 0 0
10:35 am 10:35 Cloudy 24 -4.3 21 -6.2 87 87 N 14 22 30.12 1020 7 11.265408 0 0
10:55 am 10:55 Cloudy 24 -4.4 21 -6.3 87 87 N 23 37 30.12 1020 7 11.265408 0 0
11:15 am 11:15 Cloudy 24 -4.6 20 -6.5 87 87 N 17 28 30.15 1021 10 16.09344 0 0
11:35 am 11:35 Cloudy with Mist and Fog 24 -4.7 20 -6.6 87 87 N 20 31 30.15 1021 4 6.437376 0 0
11:55 am 11:55 Cloudy with Mist and Fog 23 -4.8 20 -6.6 87 87 N 17 28 30.12 1020 3 4.828032 0 0
12:15 pm 12:15 Cloudy with Mist and Fog 23 -5 20 -6.9 87 87 N 18 30 30.12 1020 3 4.828032 0 0
12:35 pm 12:35 Cloudy with Mist and Fog 23 -5 20 -6.7 88 88 N 21 33 30.12 1020 3 4.828032 0 0
12:55 pm 12:55 Cloudy with Mist and Fog 23 -5.1 19 -7 87 87 N 20 31 30.15 1021 4 6.437376 0 0
1:15 pm 13:15 Cloudy with Mist and Fog 22 -5.4 19 -7.2 87 87 N 21 33 30.12 1020 4 6.437376 0 0
1:35 pm 13:35 Cloudy with Mist and Fog 22 -5.8 18 -7.8 86 86 N 22 35 30.18 1022 5 8.04672 0 0
1:55 pm 13:55 Cloudy with Mist and Fog 21 -6 17 -8.1 85 85 N 22 35 30.18 1022 5 8.04672 0 0
2:15 pm 14:15 Cloudy 21 -6.1 17 -8.4 84 84 N 18 30 30.18 1022 10 16.09344 0 0
2:35 pm 14:35 Cloudy 21 -6.3 17 -8.6 84 84 N 20 31 30.18 1022 10 16.09344 0 0
2:55 pm 14:55 Cloudy 21 -6.3 16 -8.7 83 83 NNW 16 26 30.18 1022 10 16.09344 0 0
3:15 pm 15:15 Cloudy 20 -6.5 15 -9.2 81 81 N 20 31 30.18 1022 10 16.09344 0 0
3:35 pm 15:35 Cloudy 20 -6.8 15 -9.6 81 81 N 18 30 30.21 1023 10 16.09344 0 0
3:55 pm 15:55 Cloudy 19 -7 14 -10 79 79 N 21 33 30.21 1023 10 16.09344 0 0
4:15 pm 16:15 Cloudy 19 -7 14 -9.9 80 80 N 18 30 30.21 1023 10 16.09344 0 0
4:35 pm 16:35 Cloudy 19 -7 14 -10 79 79 N 17 28 30.21 1023 10 16.09344 0 0
4:55 pm 16:55 Cloudy 19 -7 14 -9.8 81 81 N 20 31 30.21 1023 10 16.09344 0 0
5:15 pm 17:15 Cloudy 20 -6.9 14 -9.8 80 80 N 17 28 30.21 1023 10 16.09344 0 0
5:35 pm 17:35 Cloudy 20 -6.7 15 -9.5 81 81 N 16 26 30.21 1023 10 16.09344 0 0
5:55 pm 17:55 Cloudy 20 -6.6 15 -9.4 81 81 N 17 28 30.21 1023 10 16.09344 0 0
6:15 pm 18:15 Cloudy 20 -6.8 15 -9.7 80 80 NNW 16 26 30.21 1023 10 16.09344 0 0
6:35 pm 18:35 Cloudy 19 -7 14 -10 79 79 N 18 30 30.24 1024 10 16.09344 0 0
6:55 pm 18:55 Cloudy 19 -7.2 14 -10.1 80 80 NNW 16 26 30.24 1024 10 16.09344 0 0
7:15 pm 19:15 Cloudy 19 -7.3 14 -10 81 81 N 17 28 30.24 1024 10 16.09344 0 0
7:35 pm 19:35 Cloudy 19 -7.3 14 -10.1 81 81 NNW 18 30 30.24 1024 10 16.09344 0 0
7:55 pm 19:55 Cloudy 19 -7.2 15 -9.7 83 83 NNW 13 20 30.24 1024 10 16.09344 0 0
8:15 pm 20:15 Cloudy 19 -7.2 14 -9.9 81 81 NNW 13 20 30.24 1024 10 16.09344 0 0
8:35 pm 20:35 Cloudy 19 -7.2 14 -10.1 80 80 N 17 28 30.24 1024 10 16.09344 0 0
8:55 pm 20:55 Cloudy 19 -7.2 14 -10.1 80 80 NNW 16 26 30.24 1024 10 16.09344 0 0
9:15 pm 21:15 Cloudy 19 -7.1 14 -9.9 81 81 NNW 17 28 30.27 1025 10 16.09344 0 0
9:35 pm 21:35 Cloudy 19 -7.3 14 -10.1 81 81 NNW 15 24 30.3 1026 10 16.09344 0 0
9:55 pm 21:55 Cloudy 19 -7.5 13 -10.3 81 81 NNW 14 22 30.3 1026 10 16.09344 0 0
10:15 pm 22:15 Cloudy 19 -7.5 14 -10.2 81 81 NNW 16 26 30.3 1026 10 16.09344 0 0
10:35 pm 22:35 Cloudy 19 -7.5 13 -10.5 79 79 NNW 14 22 30.3 1026 10 16.09344 0 0
10:55 pm 22:55 Cloudy 19 -7.3 14 -10.2 80 80 NNW 13 20 30.3 1026 10 16.09344 0 0
11:15 pm 23:15 Cloudy 19 -7.2 13 -10.3 79 79 NNW 16 26 30.3 1026 10 16.09344 0 0
11:35 pm 23:35 Cloudy 19 -7.2 13 -10.4 78 78 N 15 24 30.3 1026 10 16.09344 0 0
11:55 pm 23:55 Cloudy 19 -7.3 13 -10.3 79 79 NNW 12 19 30.3 1026 10 16.09344 0 0

Powered by AerisWeather